Location: Unspecified
(0.0000°N, 0.0000°E)
Time: 14:38:46
(UTC+00:00)

STARLINK-35348 - Pass Details

Date: 23 February 2026
Orbit: 474 x 476 km, 53.2° (Epoch: 14 March)

Event Time Altitude Azimuth Distance (km) Brightness Sun altitude
Rises 19:28:56 0° 239° (WSW) 2,518 7.3 -18.6°
Reaches altitude 10° 19:31:32 10° 257° (WSW) 1,636 6.3 -19.3°
Maximum altitude 19:34:13 19° 304° (NW) 1,180 4.8 -19.9°
Drops below altitude 10° 19:36:59 10° 352° (N) 1,656 5.0 -20.6°
Enters shadow 19:37:19 - 355° (N) 1,757 5.1 -20.7°
